This is the latest recevied weather packets stored in our database for station/object SR8NGO-1. If no packets are shown the sender has not sent any weather packets the latest 10 day(s).
| Time | Temp. | Humidity | Pressure | Rain* | Wind** | Luminosity | Snow |
|---|---|---|---|---|---|---|---|
| 1778224132 | 11.11° C | 93% | 1004.9 hPa | 137.92 mm | - | - | - |
| 1778223892 | 11.11° C | 93% | 1004.8 hPa | 137.92 mm | - | - | - |
| 1778223652 | 10° C | 92% | 1004.8 hPa | 137.92 mm | - | - | - |
| 1778223412 | 10° C | 92% | 1004.7 hPa | 137.92 mm | - | - | - |
| 1778223172 | 11.11° C | 93% | 1004.6 hPa | 137.92 mm | - | - | - |
| 1778222932 | 10° C | 92% | 1004.4 hPa | 136.91 mm | - | - | - |
| 1778222692 | 10° C | 92% | 1004.4 hPa | 135.89 mm | - | - | - |
| 1778222452 | 10° C | 92% | 1004.4 hPa | 135.89 mm | - | - | - |
| 1778222212 | 10° C | 92% | 1004.4 hPa | 134.11 mm | - | - | - |
| 1778221972 | 10° C | 92% | 1004.4 hPa | 134.87 mm | - | - | - |
| 1778221732 | 10° C | 93% | 1004.2 hPa | 136.91 mm | - | - | - |
| 1778221492 | 10° C | 92% | 1004.1 hPa | 136.91 mm | - | - | - |
| 1778221252 | 11.11° C | 93% | 1004.1 hPa | 137.92 mm | - | - | - |
| 1778221012 | 11.11° C | 93% | 1004.1 hPa | 137.92 mm | - | - | - |
| 1778220772 | 10° C | 93% | 1004.2 hPa | 137.92 mm | - | - | - |
| 1778220532 | 10° C | 92% | 1004.2 hPa | 134.87 mm | - | - | - |
| 1778220292 | 10° C | 92% | 1004.2 hPa | 134.87 mm | - | - | - |
| 1778220052 | 10° C | 92% | 1004.2 hPa | 134.87 mm | - | - | - |
| 1778219812 | 10° C | 92% | 1004.2 hPa | 133.1 mm | - | - | - |
| 1778219572 | 10° C | 92% | 1004.2 hPa | 131.06 mm | - | - | - |
| 1778219332 | 10° C | 92% | 1004.2 hPa | 129.03 mm | - | - | - |
| 1778219092 | 10° C | 92% | 1004.1 hPa | 128.02 mm | - | - | - |
| 1778218852 | 10° C | 92% | 1004 hPa | 128.02 mm | - | - | - |
| 1778218612 | 10° C | 92% | 1003.9 hPa | 128.02 mm | - | - | - |
| 1778218372 | 10° C | 92% | 1003.9 hPa | 128.02 mm | - | - | - |
* Rain latest hour (hover to see other rain measurements)
** Current wind speed in m/s (hover to see current wind gust speed)